This demonstration page uses our WeatherBlox Daily Observations layout. Learn more.

Left ArrowRight Arrow

Hourly Observations for October 15, 2021

Temp ( °F °C ) Dew Point ( °F °C ) Humidity (%) Winds ( mph kmh ) Pressure ( in mb ) Visibility ( mi km ) Precip ( " mm )
12:51 am 00:51 Clear 52 11.1 31 -0.6 45 45 N 6 9 30.00 1016 10 16 N/A
1:51 am 01:51 Clear 49 9.4 32 undefined 52 52 NNE 3 6 30.01 1016 10 16 N/A
2:51 am 02:51 Clear 49 9.4 31 -0.6 50 50 N N/A 30.01 1016 10 16 N/A
3:51 am 03:51 Clear 46 7.8 31 -0.6 56 56 E 5 7 30.03 1017 10 16 N/A
4:51 am 04:51 Clear 45 7.2 31 -0.6 58 58 SSE 3 6 30.06 1018 10 16 N/A
5:51 am 05:51 Clear 44 6.7 31 -0.6 60 60 ENE 5 7 30.09 1019 10 16 N/A
6:51 am 06:51 Sunny 44 6.7 32 undefined 63 63 N N/A 30.12 1020 10 16 N/A
7:51 am 07:51 Sunny 54 12.2 33 0.6 45 45 N N/A 30.13 1020 10 16 N/A
8:51 am 08:51 Sunny 60 15.6 32 undefined 35 35 WNW 6 9 30.14 1021 10 16 N/A
9:51 am 09:51 Sunny 65 18.3 32 undefined 29 29 VRB 3 6 30.14 1021 10 16 N/A
10:51 am 10:51 Sunny 70 21.1 28 -2.2 21 21 E 6 9 30.11 1020 10 16 N/A
11:51 am 11:51 Sunny 72 22.2 28 -2.2 19 19 VRB 5 7 30.09 1019 10 16 N/A
12:51 pm 12:51 Sunny 73 22.8 28 -2.2 19 19 N N/A 30.07 1018 10 16 N/A
1:51 pm 13:51 Sunny 77 25 30 -1.1 18 18 VRB 6 9 30.04 1017 10 16 N/A
2:51 pm 14:51 Sunny 78 25.6 28 -2.2 16 16 SE 12 19 30.03 1017 10 16 N/A
3:51 pm 15:51 Sunny 78 25.6 27 -2.8 15 15 SE 8 13 30.02 1017 10 16 N/A
4:51 pm 16:51 Sunny 76 24.4 28 -2.2 17 17 SSE 10 17 30.02 1017 10 16 N/A
5:51 pm 17:51 Clear 70 21.1 28 -2.2 21 21 SE 5 7 30.04 1017 10 16 N/A
6:51 pm 18:51 Clear 66 18.9 29 -1.7 25 25 S 5 7 30.06 1018 10 16 N/A
7:51 pm 19:51 Clear 66 18.9 26 -3.3 22 22 E 12 19 30.06 1018 10 16 N/A
8:51 pm 20:51 Clear 62 16.7 26 -3.3 25 25 E 8 13 30.09 1019 10 16 N/A
9:51 pm 21:51 Clear 61 16.1 22 -5.6 22 22 SE 8 13 30.10 1019 10 16 N/A
10:51 pm 22:51 Clear 59 15 20 -6.7 22 22 SSE 9 15 30.10 1019 10 16 N/A
11:51 pm 23:51 Clear 60 15.6 18 -7.8 19 19 SE 12 19 30.09 1019 10 16 N/A

Powered by AerisWeather